• En Estados Unidos
  • Lista de países
  • Para 7 días
  • Temperatura del agua
  • Mapa Satelital
  • El tiempo en el mapa
  • Informadores
  • user-avatar
    Iniciar sesión

    Tiempo cada hora Fier

    Hoy, 25 Septiembre, Martes

    Tiempo Temperatura Precipitaciones Viento Presión Humedad
    00:00 +21°C° 0.1 mm 4 mps 762 mmHg 78%
    01:00 +21°C° 0.1 mm 5 mps 763 mmHg 75%
    02:00 +20°C° 0 mm 5 mps 763 mmHg 72%
    03:00 +19°C° 0 mm 6 mps 763 mmHg 69%
    04:00 +17°C° 0 mm 6 mps 764 mmHg 66%
    05:00 +17°C° 0 mm 6 mps 764 mmHg 61%
    06:00 +17°C° 0 mm 6 mps 764 mmHg 57%
    07:00 +17°C° 0 mm 6 mps 765 mmHg 53%
    08:00 +20°C° 0 mm 6 mps 765 mmHg 47%
    09:00 +22°C° 0 mm 6 mps 765 mmHg 42%
    10:00 +24°C° 0 mm 7 mps 765 mmHg 36%
    11:00 +26°C° 0 mm 7 mps 765 mmHg 33%
    12:00 +27°C° 0 mm 7 mps 765 mmHg 29%
    13:00 +28°C° 0 mm 7 mps 765 mmHg 26%
    14:00 +28°C° 0 mm 7 mps 765 mmHg 26%
    15:00 +27°C° 0 mm 7 mps 764 mmHg 25%
    16:00 +27°C° 0 mm 7 mps 764 mmHg 24%
    17:00 +23°C° 0 mm 7 mps 765 mmHg 26%
    18:00 +21°C° 0 mm 7 mps 765 mmHg 29%
    19:00 +18°C° 0 mm 7 mps 766 mmHg 31%
    20:00 +17°C° 0 mm 6 mps 766 mmHg 32%
    21:00 +16°C° 0 mm 6 mps 767 mmHg 33%
    22:00 +16°C° 0 mm 6 mps 767 mmHg 35%
    23:00 +15°C° 0 mm 6 mps 768 mmHg 37%

    Mañana, 26 Septiembre, Miércoles

    Tiempo Temperatura Precipitaciones Viento Presión Humedad
    00:00 +14°C° 0 mm 6 mps 768 mmHg 39%
    01:00 +13°C° 0 mm 6 mps 768 mmHg 41%
    02:00 +13°C° 0 mm 6 mps 768 mmHg 43%
    03:00 +11°C° 0 mm 6 mps 768 mmHg 45%
    04:00 +11°C° 0 mm 6 mps 768 mmHg 47%
    05:00 +11°C° 0 mm 6 mps 769 mmHg 45%
    06:00 +13°C° 0 mm 6 mps 769 mmHg 43%
    07:00 +14°C° 0 mm 7 mps 769 mmHg 41%
    08:00 +15°C° 0 mm 7 mps 769 mmHg 36%
    09:00 +17°C° 0 mm 7 mps 769 mmHg 31%
    10:00 +20°C° 0 mm 7 mps 770 mmHg 27%
    11:00 +21°C° 0 mm 7 mps 769 mmHg 25%
    12:00 +22°C° 0 mm 7 mps 769 mmHg 23%
    13:00 +22°C° 0 mm 7 mps 769 mmHg 21%
    14:00 +22°C° 0 mm 7 mps 769 mmHg 21%
    15:00 +22°C° 0 mm 7 mps 769 mmHg 21%
    16:00 +21°C° 0 mm 7 mps 769 mmHg 21%
    17:00 +19°C° 0 mm 6 mps 769 mmHg 24%
    18:00 +16°C° 0 mm 6 mps 770 mmHg 27%
    19:00 +14°C° 0 mm 6 mps 770 mmHg 30%
    20:00 +14°C° 0 mm 6 mps 770 mmHg 32%
    21:00 +13°C° 0 mm 5 mps 771 mmHg 34%
    22:00 +12°C° 0 mm 5 mps 771 mmHg 36%
    23:00 +12°C° 0 mm 5 mps 771 mmHg 38%

    Pasado mañana, 27 Septiembre, Jueves

    Tiempo Temperatura Precipitaciones Viento Presión Humedad
    00:00 +10°C° 0 mm 5 mps 771 mmHg 39%
    01:00 +10°C° 0 mm 5 mps 771 mmHg 41%
    02:00 +9°C° 0 mm 5 mps 771 mmHg 42%
    03:00 +9°C° 0 mm 5 mps 770 mmHg 44%
    04:00 +9°C° 0 mm 5 mps 770 mmHg 45%
    05:00 +9°C° 0 mm 5 mps 770 mmHg 43%
    06:00 +10°C° 0 mm 5 mps 770 mmHg 41%
    07:00 +12°C° 0 mm 5 mps 770 mmHg 40%
    08:00 +14°C° 0 mm 5 mps 769 mmHg 34%
    09:00 +17°C° 0 mm 5 mps 769 mmHg 28%
    10:00 +20°C° 0 mm 5 mps 768 mmHg 22%
    11:00 +21°C° 0 mm 5 mps 768 mmHg 20%
    12:00 +22°C° 0 mm 6 mps 767 mmHg 18%
    13:00 +23°C° 0 mm 6 mps 766 mmHg 15%
    14:00 +23°C° 0 mm 6 mps 766 mmHg 16%
    15:00 +23°C° 0 mm 6 mps 765 mmHg 16%
    16:00 +23°C° 0 mm 6 mps 765 mmHg 17%
    17:00 +21°C° 0 mm 6 mps 765 mmHg 20%
    18:00 +19°C° 0 mm 6 mps 765 mmHg 23%
    19:00 +16°C° 0 mm 6 mps 765 mmHg 27%
    20:00 +15°C° 0 mm 6 mps 765 mmHg 29%
    21:00 +14°C° 0 mm 6 mps 764 mmHg 31%
    22:00 +14°C° 0 mm 5 mps 764 mmHg 32%
    23:00 +14°C° 0 mm 5 mps 764 mmHg 34%

    28 Septiembre, Viernes

    Tiempo Temperatura Precipitaciones Viento Presión Humedad
    00:00 +14°C° 0 mm 5 mps 764 mmHg 35%
    01:00 +14°C° 0 mm 5 mps 763 mmHg 36%
    02:00 +14°C° 0 mm 4 mps 763 mmHg 37%
    03:00 +13°C° 0 mm 4 mps 763 mmHg 39%
    04:00 +13°C° 0 mm 4 mps 762 mmHg 40%
    05:00 +14°C° 0 mm 4 mps 762 mmHg 39%
    06:00 +15°C° 0 mm 4 mps 762 mmHg 37%
    07:00 +15°C° 0 mm 4 mps 762 mmHg 36%
    08:00 +19°C° 0 mm 4 mps 762 mmHg 34%
    09:00 +21°C° 0 mm 4 mps 762 mmHg 32%
    10:00 +23°C° 0 mm 4 mps 761 mmHg 30%
    11:00 +25°C° 0 mm 4 mps 761 mmHg 31%
    12:00 +26°C° 0 mm 4 mps 760 mmHg 32%
    13:00 +27°C° 0 mm 3 mps 760 mmHg 33%
    14:00 +26°C° 0 mm 4 mps 760 mmHg 35%
    15:00 +25°C° 0 mm 4 mps 760 mmHg 38%
    16:00 +23°C° 0 mm 4 mps 760 mmHg 40%
    17:00 +22°C° 0 mm 4 mps 760 mmHg 46%
    18:00 +20°C° 0 mm 4 mps 760 mmHg 51%
    19:00 +19°C° 0 mm 4 mps 760 mmHg 56%
    20:00 +18°C° 0 mm 4 mps 760 mmHg 59%
    21:00 +18°C° 0 mm 3 mps 760 mmHg 62%
    22:00 +17°C° 0 mm 3 mps 760 mmHg 64%
    23:00 +16°C° 0 mm 3 mps 760 mmHg 65%

    29 Septiembre, Sábado

    Tiempo Temperatura Precipitaciones Viento Presión Humedad
    00:00 +16°C° 0 mm 3 mps 760 mmHg 65%
    01:00 +16°C° 0 mm 3 mps 760 mmHg 65%
    02:00 +16°C° 0 mm 3 mps 760 mmHg 65%
    03:00 +16°C° 0 mm 2 mps 760 mmHg 65%
    04:00 +15°C° 0 mm 2 mps 760 mmHg 65%
    05:00 +16°C° 0 mm 2 mps 760 mmHg 62%
    06:00 +17°C° 0 mm 2 mps 760 mmHg 60%
    07:00 +18°C° 0 mm 2 mps 760 mmHg 57%
    08:00 +21°C° 0 mm 1 mps 760 mmHg 51%
    09:00 +23°C° 0 mm 1 mps 760 mmHg 44%
    10:00 +26°C° 0 mm 1 mps 760 mmHg 37%
    11:00 +26°C° 0 mm 2 mps 760 mmHg 35%
    12:00 +27°C° 0 mm 2 mps 760 mmHg 33%
    13:00 +28°C° 0 mm 3 mps 760 mmHg 31%
    14:00 +27°C° 0 mm 4 mps 760 mmHg 32%
    15:00 +26°C° 0 mm 4 mps 760 mmHg 33%
    16:00 +26°C° 0 mm 4 mps 760 mmHg 34%
    17:00 +23°C° 0 mm 4 mps 760 mmHg 41%
    18:00 +21°C° 0 mm 3 mps 760 mmHg 47%
    19:00 +19°C° 0 mm 2 mps 761 mmHg 53%
    20:00 +19°C° 0 mm 2 mps 761 mmHg 52%
    21:00 +18°C° 0 mm 2 mps 762 mmHg 52%
    22:00 +18°C° 0 mm 2 mps 762 mmHg 51%
    23:00 +18°C° 0 mm 2 mps 762 mmHg 50%

    30 Septiembre, Domingo

    Tiempo Temperatura Precipitaciones Viento Presión Humedad
    00:00 +18°C° 0 mm 2 mps 762 mmHg 49%
    01:00 +18°C° 0 mm 2 mps 762 mmHg 47%
    02:00 +17°C° 0 mm 2 mps 762 mmHg 47%
    03:00 +17°C° 0 mm 2 mps 762 mmHg 47%
    04:00 +17°C° 0 mm 2 mps 762 mmHg 47%
    05:00 +18°C° 0 mm 2 mps 762 mmHg 46%
    06:00 +19°C° 0 mm 2 mps 763 mmHg 45%
    07:00 +19°C° 0 mm 2 mps 763 mmHg 45%
    08:00 +21°C° 0 mm 2 mps 763 mmHg 40%
    09:00 +25°C° 0 mm 2 mps 763 mmHg 36%
    10:00 +27°C° 0 mm 2 mps 763 mmHg 31%
    11:00 +27°C° 0 mm 2 mps 763 mmHg 31%
    12:00 +28°C° 0 mm 2 mps 762 mmHg 30%
    13:00 +28°C° 0 mm 2 mps 762 mmHg 29%
    14:00 +28°C° 0 mm 2 mps 762 mmHg 31%
    15:00 +27°C° 0 mm 2 mps 762 mmHg 34%
    16:00 +27°C° 0 mm 2 mps 762 mmHg 36%
    17:00 +25°C° 0 mm 2 mps 762 mmHg 42%
    18:00 +23°C° 0 mm 1 mps 762 mmHg 47%
    19:00 +21°C° 0 mm 1 mps 762 mmHg 53%
    20:00 +21°C° 0 mm 1 mps 763 mmHg 54%
    21:00 +21°C° 0 mm 1 mps 763 mmHg 55%
    22:00 +20°C° 0 mm 1 mps 763 mmHg 56%
    23:00 +20°C° 0 mm 1 mps 763 mmHg 56%
    Mostrar más